sat.trackr.live / text

‹ back to catalog

STARLINK-5712

NORAD 55615 · 2023-020AY

PAYLOAD ACTIVE UNKNOWN

§ Identity

Operator
Country
US
Launch date
2023-02-12
Launch site
AFETR
Launch vehicle
Mass (kg)
RCS (m²)

Purposes: comms

External: N2YO · Heavens-Above · Gunter

§ Orbital elements

Epoch: 2026-09-20T06:48:23.120352Z

Period
94.27 min
Inclination
43.0034°
Eccentricity
0.0001257
Mean motion
15.27578744 rev/d
Perigee alt
482.2 km
Apogee alt
483.9 km
Semi-major
6,861.2 km
B*
-5.2691e-5
RAAN
334.9523°
Arg perigee
255.7402°
Mean anomaly
104.3310°
Rev number
19,880

§ Raw data

STARLINK-57121 55615U 23020AY  26263.28360093 -.00001712  00000+0 -52691-4 0  99982 55615  43.0034 334.9523 0001257 255.7402 104.3310 15.27578744198805

JSON: /api/v1/satellites/55615 · /tle

For live sub-satellite position, see the globe view (requires WebGL).

§ Visibility from observer

Set your observer location to see the next 7 days of passes ≥ 10°. The values pass through the URL so the page stays shareable.

No JS? Fill the form by hand. The geolocation button needs JavaScript.